#timestamp,LO_Frequency,Hit 
1501876815.6,286046976.2,N
1501876835.4,286046978.3,N
1501876855.2,286046975.9,N
1501876875.1,286046980.3,N
1501876876.0,286046980.3,N
1501876895.8,286046977.7,N
1501876915.6,286046980.4,N
1501876935.5,286046978.5,N
1501876955.3,286046981.7,N
1501876975.1,286046979.5,N
1501876995.9,286046980.0,N
1501877015.7,286046979.4,N
1501877035.5,286046979.7,N
1501877055.3,286046979.3,N
1501877075.2,286046979.9,N
1501877095.0,286046980.2,N
1501877095.9,286046980.2,N
1501877115.7,286046981.5,N
1501877135.6,286046980.4,N
1501877155.4,286046977.4,N
1501877175.2,286046979.7,N
1501877195.1,286046979.8,N
1501877196.0,286046979.8,N
1501877215.8,286046981.5,N
1501877235.6,286046980.7,N
1501877255.5,286046980.6,N
1501877275.3,286046981.0,N
1501877295.1,286046980.5,N
1501877315.8,286046983.4,N
1501877335.7,286046983.6,N
1501877355.5,286046982.5,N
1501877375.3,286046982.3,N
1501877395.2,286046980.7,N
1501877415.9,286046981.3,N
1501877435.7,286046981.0,N
1501877455.6,286046983.2,N
1501877475.4,286046980.9,N
1501877495.2,286046980.9,N
1501877515.1,286046980.6,N
1501877516.0,286046980.6,N
1501877535.8,286046983.1,N
1501877555.6,286046981.2,N
1501877575.4,286046980.9,N
1501877595.3,286046981.2,N
1501877615.1,286046981.1,N
1501877635.8,286046980.6,N
1501877655.7,286046980.6,N
1501877675.5,286046982.9,N
1501877695.3,286046985.2,N
1501877715.2,286046982.4,N
1501877735.9,286046985.1,N
1501877755.7,286046983.2,N
1501877775.6,286046984.9,N
1501877795.4,286046986.7,N
1501877815.2,286046982.6,N
1501877835.0,286046982.4,N
1501877836.0,286046982.4,N
1501877855.8,286046983.9,N
1501877875.6,286046986.0,N
1501877895.4,286046985.9,N
1501877915.3,286046985.2,N
1501877935.1,286046983.8,N
1501877955.8,286046986.3,N
1501877975.7,286046985.6,N
1501877995.5,286046987.8,N
1501878015.3,286046988.0,N
1501878035.2,286046986.3,N
1501878055.9,286046988.4,N
1501878075.7,286046986.6,N
1501878095.6,286046985.5,N
1501878115.4,286046985.9,N
1501878135.2,286046987.2,N
1501878155.0,286046988.2,N
1501878156.0,286046988.2,N
1501878175.8,286046985.5,N
1501878195.6,286046986.4,N
1501878215.4,286046986.4,N
1501878235.3,286046983.7,N
1501878255.1,286046987.6,N
1501878275.8,286046988.2,N
1501878295.7,286046987.9,N
1501878315.5,286046987.8,N
1501878335.3,286046988.1,N
1501878355.2,286046987.5,N
1501878375.9,286046987.1,N
1501878395.7,286046988.3,N
1501878415.6,286046987.7,N
1501878435.4,286046988.3,N
1501878455.2,286046985.4,N
1501878475.1,286046988.0,N
1501878476.0,286046988.0,N
1501878495.8,286046985.8,N
1501878515.6,286046985.9,N
1501878535.4,286046988.4,N
1501878555.3,286046988.2,N
1501878575.1,286046987.7,N
1501878595.8,286046988.4,N
1501878615.7,286046987.7,N
1501878635.5,286046989.5,N
1501878655.3,286046988.3,N
1501878675.2,286046990.0,N
1501878695.9,286046989.2,N
1501878715.7,286046988.9,N
1501878735.6,286046988.8,N
1501878755.4,286046989.2,N
1501878775.2,286046987.1,N
1501878795.0,286046987.1,N
1501878795.9,286046987.1,N
1501878815.8,286046987.7,N
1501878835.6,286046989.9,N
1501878855.4,286046989.3,N
1501878875.3,286046991.6,N
1501878895.1,286046989.9,N
1501878915.8,286046989.7,N
1501878935.7,286046988.7,N
1501878955.5,286046987.6,N
1501878975.3,286046987.5,N
1501878995.2,286046988.8,N
1501879015.9,286046991.6,N
1501879035.7,286046991.0,N
1501879055.5,286046990.6,N
1501879075.4,286046990.4,N
1501879095.2,286046990.7,N
1501879115.0,286046990.1,N
1501879115.9,286046990.1,N
1501879135.8,286046990.9,N
1501879155.6,286046992.9,N
1501879175.4,286046991.8,N
1501879195.3,286046992.2,N
1501879215.1,286046992.6,N
1501879216.0,286046992.6,N
1501879235.8,286046993.1,N
1501879255.7,286046992.1,N
1501879275.5,286046992.6,N
1501879295.3,286046991.9,N
1501879315.2,286046994.3,N
1501879335.9,286046992.2,N
1501879355.7,286046991.8,N
1501879375.5,286046992.2,N
1501879395.4,286046993.5,N
1501879415.2,286046994.3,N
1501879435.0,286046993.6,N
1501879435.9,286046993.6,N
1501879455.8,286046996.4,N
1501879475.6,286046995.8,N
1501879495.4,286046995.6,N
1501879515.3,286046995.2,N
1501879535.1,286046996.1,N
1501879536.0,286046996.1,N
1501879555.8,286046994.0,N
1501879575.7,286046993.4,N
1501879595.5,286046995.4,N
1501879615.3,286046997.5,N
1501879635.1,286046998.0,N
1501879655.9,286046995.2,N
1501879675.7,286046997.9,N
1501879695.5,286046997.5,N
1501879715.4,286046997.4,N
1501879735.2,286046997.7,N
1501879755.0,286046997.3,N
1501879755.9,286046997.3,N
1501879775.8,286046997.5,N
1501879795.6,286046997.5,N
1501879815.4,286046997.2,N
1501879835.3,286046998.0,N
1501879855.1,286046997.8,N
1501879856.0,286046997.8,N
1501879875.8,286046997.6,N
1501879895.6,286046996.9,N
1501879915.5,286046998.9,N
1501879935.3,286046996.6,N
1501879955.1,286046999.2,N
1501879975.9,286046999.4,N
1501879995.7,286046998.1,N
1501880015.5,286046998.7,N
1501880035.4,286046998.4,N
1501880055.2,286046999.1,N
1501880075.0,286046996.7,N
1501880075.9,286046996.7,N
1501880095.8,286046999.4,N
1501880115.6,286046998.1,N
1501880135.4,286047000.4,N
1501880155.3,286047002.7,N
1501880175.1,286046998.7,N
1501880176.0,286046998.7,N
1501880195.8,286046998.9,N
1501880215.6,286047000.1,N
1501880235.5,286046998.1,N
1501880255.3,286047002.3,N
1501880275.1,286047000.0,N
1501880295.9,286046999.7,N
1501880315.7,286046999.7,N
1501880335.5,286047000.3,N
1501880355.4,286047000.4,N
1501880375.2,286047000.9,N
1501880395.0,286047002.2,N
1501880395.9,286047002.2,N
